Paso Robles, CA

6:51 PM PDT on October 22, 2017 (GMT -0700)
Paso Robles Municipal

Weather History for KPRB - September, 2013

Change the Weather History Date:

Wednesday, September 11, 2013

  Actual Average Record
Temperature  
Mean Temperature 67 °F 70 °F  
Max Temperature 83 °F 90 °F 110 °F (1979)
Min Temperature 51 °F 51 °F 39 °F (1952)
Degree Days  
Heating Degree Days 0 0  
Month to date heating degree days 0 0  
Since 1 July heating degree days 0 8  
Cooling Degree Days 2 6  
Month to date cooling degree days 124 73  
Year to date cooling degree days 1098 806  
Growing Degree Days 18 (Base 50)    
Moisture  
Dew Point 52 °F    
Average Humidity 62    
Maximum Humidity 93    
Minimum Humidity 31    
Precipitation  
Precipitation 0.00 in 0.00 in 0.31 in (1976)
Month to date precipitation 0.00 0.02  
Year to date precipitation 1.46 8.92  
Since 1 July precipitation T  
Sea Level Pressure  
Sea Level Pressure 29.95 in    
Wind  
Wind Speed 7 mph (SW)    
Max Wind Speed 20 mph    
Max Gust Speed 23 mph    
Visibility 10 miles    
Events      
T = Trace of Precipitation, MM = Missing Value Source: NWS Daily Summary

Daily Weather History Graph

Daily Weather History Graph

Search for Another Location

Airport or City:

Trip Planner

Search our weather history database for the weather conditions in past years. The results will help you decide how hot, cold, wet, or windy it might be!

Date:

Astronomy

Sep. 11, 2013 Rise Set
Actual Time 6:42 AM PDT 7:14 PM PDT
Civil Twilight 6:16 AM PDT 7:40 PM PDT
Nautical Twilight 5:46 AM PDT 8:10 PM PDT
Astronomical Twilight 5:15 AM PDT 8:41 PM PDT
Moon 1:02 PM PDT (9/11) 11:28 PM PDT (9/11)
Length of Visible Light 13h 23m
Length of Day
12h 32m
Waxing Crescent, 40% of the Moon is Illuminated
Sep 11
Waxing Crescent
Sep 12
First Quarter
Sep 19
Full
Sep 26
Last Quarter
Oct 4
New

Hourly Weather History & Observations

Time (PDT) Temp. Dew Point Humidity Pressure Visibility Wind Dir Wind Speed Gust Speed Precip Events Conditions
12:53 AM 57.0 °F 52.0 °F 83% 29.92 in 10.0 mi Calm Calm - N/A   Clear
1:53 AM 55.9 °F 52.0 °F 87% 29.92 in 10.0 mi Calm Calm - N/A   Clear
2:53 AM 55.0 °F 51.1 °F 86% 29.92 in 10.0 mi Calm Calm - N/A   Clear
3:53 AM 53.1 °F 50.0 °F 89% 29.93 in 10.0 mi Calm Calm - N/A   Clear
4:15 AM 53.6 °F 50.0 °F 88% 29.94 in 10.0 mi Calm Calm - N/A   Scattered Clouds
4:27 AM 53.6 °F 51.8 °F 94% 29.95 in 10.0 mi Calm Calm - N/A   Mostly Cloudy
4:53 AM 53.1 °F 50.0 °F 89% 29.94 in 10.0 mi Calm Calm - N/A   Overcast
5:53 AM 55.0 °F 51.1 °F 86% 29.96 in 10.0 mi South 3.5 mph - N/A   Overcast
6:21 AM 55.4 °F 53.6 °F 94% 29.98 in 5.0 mi NNW 3.5 mph - N/A   Overcast
6:53 AM 55.9 °F 54.0 °F 93% 29.97 in 8.0 mi Calm Calm - N/A   Overcast
7:53 AM 57.0 °F 54.0 °F 89% 29.99 in 6.0 mi Calm Calm - N/A   Overcast
8:53 AM 57.0 °F 54.0 °F 89% 30.00 in 7.0 mi SSW 3.5 mph - N/A   Overcast
9:37 AM 57.2 °F 53.6 °F 88% 30.01 in 10.0 mi SW 3.5 mph - N/A   Overcast
9:53 AM 59.0 °F 54.0 °F 83% 30.01 in 10.0 mi South 6.9 mph - N/A   Overcast
10:31 AM 62.6 °F 55.4 °F 77% 30.01 in 10.0 mi Variable 5.8 mph - N/A   Partly Cloudy
10:53 AM 64.0 °F 55.0 °F 73% 30.00 in 10.0 mi SSW 5.8 mph - N/A   Clear
11:53 AM 71.1 °F 54.0 °F 55% 29.97 in 10.0 mi SSW 8.1 mph - N/A   Clear
12:53 PM 77.0 °F 51.1 °F 40% 29.95 in 10.0 mi SSW 11.5 mph - N/A   Clear
1:53 PM 79.0 °F 50.0 °F 36% 29.93 in 10.0 mi SSW 13.8 mph - N/A   Clear
2:53 PM 82.0 °F 48.9 °F 31% 29.91 in 10.0 mi SSW 15.0 mph - N/A   Clear
3:53 PM 80.1 °F 50.0 °F 35% 29.90 in 10.0 mi SSW 15.0 mph - N/A   Clear
4:53 PM 78.1 °F 51.1 °F 39% 29.90 in 10.0 mi SSW 16.1 mph - N/A   Clear
5:53 PM 73.9 °F 48.9 °F 41% 29.90 in 10.0 mi SSW 17.3 mph - N/A   Clear
6:53 PM 69.1 °F 50.0 °F 51% 29.91 in 10.0 mi SSW 13.8 mph - N/A   Clear
7:53 PM 66.0 °F 51.1 °F 59% 29.93 in 10.0 mi SSW 4.6 mph - N/A   Clear
8:53 PM 64.0 °F 51.1 °F 63% 29.95 in 10.0 mi West 5.8 mph - N/A   Clear
9:53 PM 64.0 °F 54.0 °F 70% 29.95 in 10.0 mi West 8.1 mph - N/A   Clear
10:53 PM 62.1 °F 54.0 °F 75% 29.96 in 10.0 mi WNW 6.9 mph - N/A   Clear
11:53 PM 61.0 °F 54.0 °F 78% 29.95 in 10.0 mi WNW 8.1 mph - N/A   Clear